TimeEST,TemperatureF,Dew PointF,Humidity,Sea Level PressureIn,VisibilityMPH,Wind Direction,Wind SpeedMPH,Gust SpeedMPH,PrecipitationIn,Events,Conditions,WindDirDegrees,DateUTC
12:53 AM,36.0,28.0,73,29.93,10.0,South,11.5,18.4,N/A,,Clear,190,2014-01-13 05:53:00
1:53 AM,37.0,28.0,70,29.91,10.0,South,10.4,19.6,N/A,,Clear,180,2014-01-13 06:53:00
2:53 AM,37.9,27.0,65,29.91,10.0,South,10.4,20.7,N/A,,Clear,190,2014-01-13 07:53:00
3:53 AM,37.9,27.0,65,29.91,10.0,South,13.8,19.6,N/A,,Clear,180,2014-01-13 08:53:00
4:53 AM,37.0,27.0,67,29.89,10.0,South,11.5,19.6,N/A,,Clear,190,2014-01-13 09:53:00
5:53 AM,37.0,27.0,67,29.88,10.0,South,9.2,-,N/A,,Clear,180,2014-01-13 10:53:00
6:53 AM,39.0,27.0,62,29.88,10.0,South,9.2,21.9,N/A,,Clear,180,2014-01-13 11:53:00
7:53 AM,37.9,27.0,65,29.87,10.0,Variable,6.9,-,N/A,,Clear,0,2014-01-13 12:53:00
8:53 AM,39.9,27.0,60,29.85,10.0,South,6.9,-,N/A,,Clear,180,2014-01-13 13:53:00
9:53 AM,43.0,28.0,56,29.82,10.0,South,10.4,20.7,N/A,,Clear,180,2014-01-13 14:53:00
10:53 AM,43.0,28.9,58,29.83,10.0,South,10.4,18.4,N/A,,Clear,180,2014-01-13 15:53:00
11:53 AM,45.0,28.9,53,29.79,10.0,South,9.2,17.3,N/A,,Clear,180,2014-01-13 16:53:00
12:53 PM,46.9,30.0,52,29.74,10.0,South,11.5,18.4,N/A,,Clear,180,2014-01-13 17:53:00
1:53 PM,46.9,30.0,52,29.73,10.0,South,10.4,16.1,N/A,,Overcast,170,2014-01-13 18:53:00
2:53 PM,45.0,35.1,68,29.73,9.0,South,9.2,19.6,0.00,Rain,Light Rain,180,2014-01-13 19:53:00
3:53 PM,42.1,37.9,85,29.77,5.0,South,11.5,18.4,0.06,Rain,Light Rain,180,2014-01-13 20:53:00
4:12 PM,42.8,39.2,87,29.74,5.0,South,11.5,17.3,0.02,Rain,Light Rain,190,2014-01-13 21:12:00
4:53 PM,42.1,39.0,89,29.76,10.0,South,10.4,-,0.03,Rain,Light Rain,190,2014-01-13 21:53:00
5:53 PM,43.0,39.9,89,29.74,10.0,South,9.2,17.3,0.01,,Overcast,180,2014-01-13 22:53:00
6:08 PM,42.8,39.2,87,29.70,10.0,South,10.4,20.7,N/A,,Overcast,180,2014-01-13 23:08:00
6:53 PM,43.0,39.9,89,29.72,10.0,South,8.1,17.3,N/A,,Overcast,180,2014-01-13 23:53:00
7:50 PM,42.8,39.2,87,29.69,8.0,South,8.1,17.3,0.01,Rain,Light Rain,180,2014-01-14 00:50:00
7:53 PM,43.0,39.9,89,29.71,8.0,South,6.9,-,0.01,Rain,Light Rain,190,2014-01-14 00:53:00
8:53 PM,44.1,41.0,89,29.70,7.0,South,10.4,-,0.06,Rain,Light Rain,190,2014-01-14 01:53:00
9:53 PM,44.1,42.1,93,29.69,7.0,South,9.2,-,0.04,Rain,Light Rain,180,2014-01-14 02:53:00
10:53 PM,44.1,42.1,93,29.68,8.0,South,8.1,-,0.03,Rain,Light Rain,190,2014-01-14 03:53:00
11:53 PM,45.0,42.1,90,29.67,10.0,SSW,9.2,20.7,0.02,Rain,Light Rain,200,2014-01-14 04:53:00